Home   Weather   Yarmouth County   Past weeks

Flag for Canada Past Weather in Yarmouth County, Nova Scotia, Canada — Yesterday and Last 2 Weeks

Now
30 °F

Overcast.


Feels Like: 27 °F
Forecast: 27 / 35 °F
Wind: 3 mph from Northeast

Location: Yarmouth

Current Time: Jan 19, 2017 at 8:54:02 am

Latest Report: Jan 19, 2017 at 8:00 am


Visibility: 15 mi

Pressure: 29.99 "Hg

Humidity: 80%

Dew Point: 25 °F

Location of Yarmouth CountyLocation

Past Weather in Yarmouth County — Graph

°F

Yarmouth County Temperature Yesterday

Maximum temperature yesterday: 30 °F (at 3:00 pm)
Minimum temperature yesterday: 18 °F (at 2:00 am)
Average temperature yesterday: 24 °F

High & Low Weather Summary for the Past Weeks

 TemperatureHumidityPressure
High50 °F (Jan 12, 2:00 pm)100% (Jan 4, 7:00 am)30.75 "Hg (Jan 4, 7:00 am)
Low7 °F (Jan 9, 6:45 pm)39% (Jan 13, 9:00 pm)29.27 "Hg (Jan 4, 8:24 am)
Average29 °F80%30.14 "Hg
* Reported Jan 4 7:00 am — Jan 19 7:00 am, Yarmouth County, Weather by CustomWeather, © 2017

Note: Actual official high and low records may vary slightly from our data, if they occured in-between our weather recording intervals... More about our weather records

Advertising

Yarmouth County Weather History for the Previous 24 Hours

Scroll right to see more
 ConditionsComfort  
Time TempWeatherWind HumidityBarometerVisibility
7:00 am
Thu, Jan 19
30 °FMostly cloudy.3 mph80%30.00 "Hg15 mi
6:00 am30 °FMostly cloudy.5 mph80%29.98 "Hg15 mi
5:00 am30 °FMostly cloudy.7 mph80%29.98 "Hg15 mi
4:00 am30 °FMostly cloudy.8 mph80%29.99 "Hg15 mi
3:00 am30 °FOvercast.7 mph80%30.01 "Hg15 mi
2:00 am28 °FMostly cloudy.9 mph86%30.01 "Hg15 mi
1:00 am28 °FOvercast.7 mph80%30.02 "Hg15 mi
12:00 am28 °FOvercast.7 mph80%30.04 "Hg15 mi
11:00 pm
Wed, Jan 18
28 °FOvercast.7 mph80%30.05 "Hg15 mi
10:00 pm28 °FOvercast.9 mph74%30.07 "Hg15 mi
9:00 pm28 °FMostly cloudy.7 mph74%30.07 "Hg15 mi
8:00 pm28 °FMostly cloudy.9 mph74%30.08 "Hg15 mi
7:00 pm28 °FMostly cloudy.9 mph74%30.09 "Hg15 mi
6:00 pm28 °FOvercast.13 mph74%30.09 "Hg15 mi
5:00 pm30 °FOvercast.10 mph69%30.09 "Hg15 mi
4:00 pm30 °FMore clouds than sun.14 mph69%30.09 "Hg15 mi
3:00 pm30 °FOvercast.18 mph69%30.08 "Hg15 mi
2:00 pm28 °FMore clouds than sun.15 mph69%30.09 "Hg15 mi
1:00 pm28 °FOvercast.16 mph69%30.10 "Hg15 mi
12:00 pm27 °FBroken clouds.16 mph69%30.12 "Hg15 mi
11:00 am25 °FMore clouds than sun.14 mph74%30.17 "Hg15 mi
10:00 am21 °FOvercast.13 mph80%30.20 "Hg15 mi
9:00 am19 °FOvercast.13 mph79%30.19 "Hg15 mi
8:00 am18 °FPartly sunny.15 mph79%30.19 "Hg15 mi
Weather by CustomWeather, © 2017

See weather overviewHow to use our weather pages